Change the Weather History Date:

Saturday, March 8, 2014

  Actual Average Record
Temperature  
Mean Temperature 45 °F 38 °F  
Max Temperature 66 °F 51 °F 81 °F (1934)
Min Temperature 24 °F 24 °F -6 °F (2002)
Degree Days  
Heating Degree Days 20 27  
Month to date heating degree days 174 223  
Since 1 July heating degree days 4939 5090  
Cooling Degree Days 0 0  
Month to date cooling degree days 0 0  
Year to date cooling degree days 0 0  
Moisture  
Dew Point 26 °F    
Average Humidity 55    
Maximum Humidity 88    
Minimum Humidity 22    
Precipitation  
Precipitation 0.00 in 0.05 in 1.99 in (1986)
Month to date precipitation 0.76 0.37  
Year to date precipitation 2.36 3.47  
Sea Level Pressure  
Sea Level Pressure 30.20 in    
Wind  
Wind Speed 6 mph (SSW)    
Max Wind Speed 17 mph    
Max Gust Speed 21 mph    
Visibility 10 miles    
Events      
T = Trace of Precipitation, MM = Missing Value Source: NWS Daily Summary

Daily Weather History Graph

Daily Weather History Graph

Search for Another Location

Airport or City:

Trip Planner

Search our weather history database for the weather conditions in past years. The results will help you decide how hot, cold, wet, or windy it might be!

Date:

Astronomy

Mar. 08, 2014 Rise Set
Actual Time 6:25 AM PST 6:01 PM PST
Civil Twilight 5:57 AM PST 6:28 PM PST
Nautical Twilight 5:25 AM PST 7:00 PM PST
Astronomical Twilight 4:53 AM PST 7:33 PM PST
Moon 11:06 AM PST (3/8) 1:07 AM PST (3/8)
Length of Visible Light 12h 30m
Length of Day
11h 35m
First Quarter, 53% of the Moon is Illuminated
Mar 8
First Quarter
Mar 16
Full
Mar 23
Last Quarter
Mar 30
New
Apr 7
First Quarter

Hourly Weather History & Observations

Time (PST) Temp. Windchill Dew Point Humidity Pressure Visibility Wind Dir Wind Speed Gust Speed Precip Events Conditions
12:55 AM 30.0 °F - 27.0 °F 88% 30.26 in 7.0 mi Calm Calm - N/A   Clear
1:55 AM 28.0 °F - 25.0 °F 88% 30.25 in 9.0 mi Calm Calm - N/A   Clear
2:55 AM 25.0 °F - 21.9 °F 88% 30.26 in 10.0 mi Calm Calm - N/A   Clear
3:55 AM 27.0 °F - 23.0 °F 85% 30.25 in 10.0 mi Calm Calm - N/A   Clear
4:55 AM 28.9 °F - 25.0 °F 85% 30.22 in 10.0 mi Calm Calm - N/A   Clear
5:55 AM 27.0 °F - 23.0 °F 85% 30.23 in 10.0 mi Calm Calm - N/A   Clear
6:55 AM 28.0 °F 21.7 °F 24.1 °F 85% 30.26 in 10.0 mi ENE 5.8 mph - N/A   Clear
7:55 AM 37.0 °F 34.5 °F 28.9 °F 73% 30.25 in 8.0 mi NNE 3.5 mph - N/A   Clear
8:55 AM 43.0 °F 41.3 °F 28.9 °F 58% 30.26 in 10.0 mi NE 3.5 mph - N/A   Clear
9:55 AM 51.1 °F - 28.9 °F 43% 30.23 in 10.0 mi South 15.0 mph - N/A   Clear
10:55 AM 55.9 °F - 30.9 °F 39% 30.21 in 10.0 mi SSE 11.5 mph - N/A   Clear
11:55 AM 59.0 °F - 28.9 °F 32% 30.19 in 10.0 mi SSE 12.7 mph - N/A   Clear
12:55 PM 63.0 °F - 27.0 °F 26% 30.14 in 10.0 mi South 11.5 mph - N/A   Clear
1:55 PM 64.0 °F - 27.0 °F 25% 30.13 in 10.0 mi South 6.9 mph - N/A   Clear
2:55 PM 64.9 °F - 25.0 °F 22% 30.12 in 10.0 mi SSE 10.4 mph - N/A   Clear
3:55 PM 63.0 °F - 24.1 °F 23% 30.12 in 10.0 mi West 11.5 mph - N/A   Clear
4:55 PM 61.0 °F - 28.0 °F 29% 30.12 in 10.0 mi SW 8.1 mph - N/A   Clear
5:55 PM 57.0 °F - 26.1 °F 30% 30.14 in 10.0 mi SW 9.2 mph - N/A   Clear
6:55 PM 54.0 °F - 28.9 °F 38% 30.17 in 10.0 mi SW 8.1 mph - N/A   Clear
7:55 PM 53.1 °F - 24.1 °F 32% 30.17 in 10.0 mi Variable 3.5 mph - N/A   Overcast
8:55 PM 51.1 °F - 23.0 °F 33% 30.19 in 10.0 mi West 8.1 mph - N/A   Scattered Clouds
9:55 PM 48.9 °F - 27.0 °F 43% 30.18 in 10.0 mi WSW 5.8 mph - N/A   Mostly Cloudy
10:55 PM 48.9 °F - 28.0 °F 44% 30.18 in 10.0 mi West 9.2 mph - N/A   Overcast
11:55 PM 48.0 °F - 30.0 °F 50% 30.17 in 10.0 mi SSW 9.2 mph - N/A   Overcast